Warning: Javascript must be enabled to use all the features on this page!


Page Loading - Please Wait...

Click to hideNews Bulletins

Peak Streamflow for the Nation

USGS 11055500 PLUNGE C NR EAST HIGHLANDS CA

San Bernardino County, California
Hydrologic Unit Code 18070203
Latitude  34°07'06", Longitude 117°08'27" NAD27
Drainage area 16.9  square miles
Gage datum 1,591.19 feet above NAVD88
Output formats
Table
Graph
Tab-separated file
peakfq (watstore) format
Reselect output format
Water
Year
Date Gage
Height
(feet)
Stream-
flow
(cfs)
1919 1919-03-15 0.94 39.0
1920 1920-02-22 2.07 4405
1921 1921-03-14 3.15 1,1005
1922 1922-02-09 3.13 9245
1923 1922-12-13 2.30 3905
1924 1924-03-27 1.70 2185
1925 1925-04-05 0.95 20.05
1926 1926-04-05 2.95 8405
1927 1927-02-16 3.80 1,4205
1928 1928-02-04 2.35 2405
1929 1929-04-05 2.32 1765
1930 1930-05-03 2.18 1435
1931 1931-04-26 2.32 1705
1932 1932-02-09 2.82 3595
1933 1933-01-29 1.77 80.05
1934 1933-12-31 2.92 3805
1935 1935-01-09 2.04 2105
1936 1936-02-11 2.60 3305
1937 1937-02-06 3.90 7255
1938 1938-03-02   5,3405
1939 1939-09-25 1.70 4805
1940 1940-01-08 1.88 6605
1941 1940-12-24 1.90 7105
1942 1941-12-10 1.18 1325
1943 1943-01-23 2.60 1,7005
1944 1944-02-22 1.64 3805
1945 1945-02-02 2.32 1,2005
1946 1945-12-23 2.50 1,5005
1947 1946-11-20 1.70 1705
1948 1948-04-03 1.83 1955
1949 1949-01-20 1.14 69.05
1950 1949-12-19 1.62 1565
1951 1951-04-29 1.00 52.05
1952 1951-12-30 1.882 3605
1953 1952-12-02 1.06 62.05
1954 1954-01-25 2.56 6835
1955 1955-02-27 1.01 49.05
1956 1956-01-27 2.87 1,6305
1957 1957-02-28 2.87 1,6305
1958 1958-04-03 2.92 1,7205
1959 1959-02-16 2.03 6025
1960 1960-02-08 0.89 29.05
1961 1960-11-06 0.82 26.05
1962 1961-12-02 2.04 5365
1963 1963-02-09 1.23 99.05
1964 1964-04-01 1.04 48.05
1965 1965-04-09 1.83 3715
1966 1965-11-22 6.07 4,2005
1967 1966-12-06 5.20 4,7705
1968 1968-03-08 1.50 1905
1969 1969-01-25 5.96 4,6105
1970 1970-03-01   1002,5
1971 1970-11-29 7.41 3,0005
1972 1971-12-24 5.57 7855
1973 1973-02-11 4.20 4665
1974 1974-01-07 3.08 1145
1975 1975-03-08 3.53 2485
1976 1976-03-01 4.05 3955
1977 1977-01-03 4.20 4505
1978 1978-03-04 6.34 1,8305
1979 1979-03-27 3.90 3505
1980 1980-01-29 6.29 1,7805
1981 1981-01-29 4.45 3565
1982 1982-03-17 5.22 4655
1983 1983-02-27 5.30 1,3605
1984 1983-11-25 4.56 2505
1985 1984-12-19 4.07 1225
1986 1986-02-15 4.69 6145
1987 1987-01-04 3.79 67.05
1988 1988-04-20 4.06 1485
1989 1989-02-04 4.40 3305
1990 1990-02-17 4.59 4985
1991 1991-03-01 4.57 4775
1992 1992-02-12 5.12 1,4205
1993 1993-01-07 6.33 1,5405
1994 1994-02-07 4.31 2135
1995 1995-03-05 6.27 1,4705
1996 1996-02-21 4.23 1895
1997 1997-01-26 5.51 8185
1998 1998-02-24 6.20 1,4505
1999 1999-02-09 3.47 37.05
2000 2000-02-23 4.15 1905
2001 2001-02-12 3.54 48.05
2002 2001-11-25 2.98 9.705
2003 2002-11-09 4.68 3845
2004 2004-02-26 4.38 2675
2005 2005-01-10 9.66 3,9205
2006 2006-04-04 5.23 6005
2007 2006-12-16 2.992 13.05
2008 2008-01-05 4.94 4835
2009 2008-12-25 4.13 1635
2010 2010-02-06 5.09 5215
2011 2010-12-22 11.29 5,7405
2012 2011-10-05 3.46 1225
2013 2012-12-13 3.25 37.05
2014 2014-02-28 4.51 3305
2015 2014-12-04 4.18 2005
2016 2016-01-05 3.18 79.05
2017 2017-01-23 4.73 4475
2018 2018-01-09 3.49 89.95
2019 2019-02-14 6.55 1,4005
2020 2020-04-06 4.63 4045
2021 2021-01-29 2.07 14.25
?
  Peak Gage-Height Qualification Codes.
?
  Peak Streamflow Qualification Codes.